302P/Lemmon-PanSTARRS (2016)

Japanese version
Home page
Updated on March 6, 2020

---------------------------------------------------------------------

* Profile

Designation 302P/2014 K2
Discovery Date May 21, 2014
Magnitude 21.4 mag
Discoverer Pan-STARRS 1 telescope (Haleakala)

* Pictures

* Orbital Elements

Epoch 2016 May 12.0 TT = JDT 2457520.5                                          
T 2016 Apr. 30.53458 TT                                 Bell                    
q   3.3022571            (2000.0)            P               Q                  
n   0.11130474     Peri.  208.28069     +0.86435310     +0.49489145             
a   4.2801627      Node   121.78316     -0.43932166     +0.82952189             
e   0.2284739      Incl.    6.03085     -0.24472473     +0.25879699             
P   8.86                                                                        
From 131 observations 2007 Aug. 16-2020 Feb. 2, mean residual 0".5.             

* Magnitudes Graph

        m1 = 10.7 + 5 log d + 10.0 log r(t - 450)

---------------------------------------------------------------------

The orbital elements are published on M.P.E.C. 2020-C98.
The magnitudes graphs are made with Comet for Windows.

---------------------------------------------------------------------

Copyright(C) Seiichi Yoshida (comet@aerith.net). All rights reserved.